Location: Dana
(41.8364°N, 106.7042°W)
Time: 14:42:31
(UTC+00:00)

Injun/Solrad 3 - Pass Details

Date: 17 May 2026
Orbit: 867 x 989 km, 66.8° (Epoch: 7 June)

Event Time Altitude Azimuth Distance (km) Brightness Sun altitude
Rises 22:46:12 0° 229° (SW) 3,512 11.6 38.2°
Reaches altitude 10° 22:48:46 10° 235° (SW) 2,592 11.2 37.7°
Maximum altitude 22:54:32 45° 308° (NW) 1,245 9.7 36.6°
Drops below altitude 10° 23:00:31 10° 20° (NNE) 2,688 10.2 35.5°
Sets 23:03:15 0° 27° (NNE) 3,655 10.7 35.0°
